Find Starlink 6108

NORAD ID: 57155 Int'l Des: 2023-090 Owner: SPXS Country: US Constellation: starlink operational
LEOCIRCULAR

Live-Position

3D-Globus wird geladen...

Über Starlink 6108

Beschreibung wird geladen...

Nächste Überflüge

Passes for default location (London). Set your location on the main map for personalized predictions.

Höhenverlauf

Loading altitude history...

Zweizeiliger Elementsatz

1 57155U 23090BG 26105.98042467 .00001989 00000-0 83851-4 0 9997
2 57155 43.0029 52.9768 0001118 251.6880 108.3850 15.26728163156245
Epoch: 15. Apr. 2026 • Age: 16 hours

Aktueller Status

Höhe 484.7 km
Geschwindigkeit 7.63 km/s
Subsatellitenpunkt 6.69°N, 137.52°E
Startdatum 23. Juni 2023
Alter 2.8 years
Typ internet

Technische Details

Klassifizierung Payload
Masse 305.00 kg
Trockenmasse 290.00 kg
Gesamtmasse 305.00 kg
Länge 0.20 m
Durchmesser 2.80 m
Spannweite 9.00 m
Form Box + pan
Hersteller SPXS
Bus-Typ Starlink
Phasenstatus In Orbit
Besitzer/Staat SPXS/US

Most Searched